Location: Archemont
(49.1579°N, 1.7598°E)
Time: 00:23:47
(UTC+00:00)

Transit 4A - All Passes

Search period start: 17 April 2024 00:00
Search period end: 27 April 2024 00:00
Orbit: 871 x 972 km, 66.8° (Epoch: 16 April)

Date Brightness Start Highest point End Pass type
(mag) Time Alt. Az. Time Alt. Az. Time Alt. Az.
17 Apr - 12:53:55 10° S 12:59:36 46° ESE 13:05:12 10° NE daylight
17 Apr - 14:40:21 10° WSW 14:46:01 42° NW 14:51:35 10° NNE daylight
17 Apr - 16:30:12 10° WNW 16:33:56 17° NNW 16:37:40 10° NNE daylight
17 Apr - 18:19:41 10° NNW 18:22:48 14° N 18:25:55 10° NE daylight
17 Apr - 20:06:07 10° NNW 20:11:10 29° NE 20:16:13 10° E visible
17 Apr - 21:52:15 10° NW 21:58:05 76° WSW 22:03:55 10° SSE visible
17 Apr - 23:40:31 10° WNW 23:43:26 14° WSW 23:46:22 10° SW visible
18 Apr - 11:21:22 10° ESE 11:23:20 12° E 11:25:17 10° E daylight
18 Apr - 13:02:38 10° SSW 13:08:34 65° ESE 13:14:23 10° NE daylight
18 Apr - 14:49:57 10° WSW 14:55:18 33° NW 15:00:34 10° NNE daylight
18 Apr - 16:40:11 10° NW 16:43:31 15° NNW 16:46:50 10° NNE daylight
18 Apr - 18:28:55 10° NNW 18:32:24 16° NNE 18:35:52 10° NE daylight
18 Apr - 20:15:06 10° NNW 20:20:30 37° NE 20:25:52 10° ESE visible
18 Apr - 22:01:24 10° NW 22:07:03 54° WSW 22:12:45 10° SSE visible
19 Apr - 11:28:13 10° SE 11:32:02 18° ESE 11:35:49 10° ENE daylight
19 Apr - 13:11:34 10° SSW 13:17:35 88° SE 13:23:29 10° NE daylight
19 Apr - 14:59:42 10° W 15:04:39 27° NNW 15:09:34 10° NNE daylight
19 Apr - 16:50:06 10° NW 16:53:07 14° N 16:56:08 10° NNE daylight
19 Apr - 18:38:03 10° NNW 18:41:56 18° NNE 18:45:50 10° ENE daylight
19 Apr - 20:24:06 10° NNW 20:29:45 48° NE 20:35:23 10° ESE visible
19 Apr - 22:10:39 10° NW 22:15:59 38° WSW 22:21:20 10° S visible
20 Apr - 11:36:00 10° SSE 11:40:48 26° ESE 11:45:33 10° NE daylight
20 Apr - 13:20:43 10° SW 13:26:40 69° NW 13:32:33 10° NNE daylight
20 Apr - 15:09:33 10° WNW 15:14:04 22° NNW 15:18:33 10° NNE daylight
20 Apr - 16:59:51 10° NNW 17:02:44 14° N 17:05:37 10° NNE daylight
20 Apr - 18:47:05 10° NNW 18:51:26 21° NNE 18:55:47 10° ENE daylight
20 Apr - 20:33:07 10° NNW 20:38:55 64° NE 20:44:44 10° SE visible
20 Apr - 22:20:02 10° NW 22:24:50 27° WSW 22:29:38 10° SSW visible
21 Apr - 11:44:15 10° S 11:49:39 36° ESE 11:54:58 10° NE daylight
21 Apr - 13:30:01 10° WSW 13:35:50 51° NW 13:41:34 10° NNE daylight
21 Apr - 15:19:30 10° WNW 15:23:33 19° NNW 15:27:35 10° NNE daylight
21 Apr - 17:09:24 10° NNW 17:12:22 14° N 17:15:18 10° NE daylight
21 Apr - 18:56:06 10° NNW 19:00:53 25° NNE 19:05:40 10° E daylight
21 Apr - 20:42:09 10° NW 20:48:01 87° NE 20:53:54 10° SE visible
21 Apr - 22:29:42 10° WNW 22:33:36 19° WSW 22:37:31 10° SSW visible
22 Apr - 11:52:47 10° S 11:58:33 51° ESE 12:04:14 10° NE daylight
22 Apr - 13:39:31 10° WSW 13:45:04 39° NW 13:50:33 10° NNE daylight
22 Apr - 15:29:29 10° NW 15:33:05 16° NNW 15:36:40 10° NNE daylight
22 Apr - 17:18:45 10° NNW 17:21:57 15° N 17:25:10 10° NE daylight
22 Apr - 19:05:05 10° NNW 19:10:15 31° NE 19:15:24 10° E daylight
22 Apr - 20:51:15 10° NW 20:57:03 69° WSW 21:02:52 10° SSE visible
22 Apr - 22:40:01 10° WNW 22:42:19 12° WSW 22:44:36 10° SW visible
23 Apr - 10:19:30 10° SE 10:22:13 13° ESE 10:24:53 10° ENE daylight
23 Apr - 12:01:34 10° SSW 12:07:32 72° ESE 12:13:23 10° NE daylight
23 Apr - 13:49:09 10° W 13:54:22 31° NW 13:59:32 10° NNE daylight
23 Apr - 15:39:27 10° NW 15:42:39 15° N 15:45:52 10° NNE daylight
23 Apr - 17:27:57 10° NNW 17:31:32 16° NNE 17:35:07 10° NE daylight
23 Apr - 19:14:04 10° NNW 19:19:33 40° NE 19:25:01 10° ESE daylight
23 Apr - 21:00:25 10° NW 21:06:01 49° WSW 21:11:38 10° S visible
24 Apr - 10:26:46 10° SSE 10:30:56 20° ESE 10:35:03 10° ENE daylight
24 Apr - 12:10:35 10° SW 12:16:34 84° NW 12:22:28 10° NE daylight
24 Apr - 13:58:55 10° W 14:03:44 25° NNW 14:08:31 10° NNE daylight
24 Apr - 15:49:19 10° NW 15:52:16 14° N 15:55:13 10° NNE daylight
24 Apr - 17:37:02 10° NNW 17:41:04 19° NNE 17:45:06 10° ENE daylight
24 Apr - 19:23:04 10° NNW 19:28:46 52° NE 19:34:28 10° ESE visible
24 Apr - 21:09:42 10° NW 21:14:54 34° WSW 21:20:08 10° S visible
25 Apr - 10:34:43 10° SSE 10:39:43 28° ESE 10:44:39 10° NE daylight
25 Apr - 12:19:46 10° SW 12:25:41 63° NW 12:31:31 10° NNE daylight
25 Apr - 14:08:49 10° WNW 14:13:10 21° NNW 14:17:31 10° NNE daylight
25 Apr - 15:59:01 10° NNW 16:01:54 14° N 16:04:45 10° NNE daylight
25 Apr - 17:46:04 10° NNW 17:50:33 22° NNE 17:55:01 10° ENE daylight
25 Apr - 19:32:05 10° NNW 19:37:55 71° NE 19:43:47 10° SE visible
25 Apr - 21:19:10 10° WNW 21:23:44 24° WSW 21:28:19 10° SSW visible
26 Apr - 10:43:04 10° S 10:48:35 40° ESE 10:54:01 10° NE daylight
26 Apr - 12:29:08 10° WSW 12:34:51 47° NW 12:40:31 10° NNE daylight
26 Apr - 14:18:46 10° WNW 14:22:40 18° NNW 14:26:33 10° NNE daylight
26 Apr - 16:08:30 10° NNW 16:11:30 14° N 16:14:31 10° NE daylight
26 Apr - 17:55:03 10° NNW 17:59:58 27° NNE 18:04:52 10° E daylight
26 Apr - 19:41:08 10° NW 19:47:00 86° WSW 19:52:53 10° SSE visible
26 Apr - 21:28:57 10° WNW 21:32:29 17° WSW 21:36:02 10° SW visible
